Stations météo

réclame
Mon MeteoGroup
Mühldorf, Allemagne (10875): Température de l'air & dewpoint: 13.02.2020 22:00:00 - 19.02.2020 22:00:00 (CET)Mühldorf, Allemagne (10875): Température de l'air 5cm & Température de l'air -5cm: 13.02.2020 22:00:00 - 19.02.2020 22:00:00 (CET)Mühldorf, Allemagne (10875): Température de l'air -20cm & Température de l'air -100cm: 13.02.2020 22:00:00 - 19.02.2020 22:00:00 (CET)Mühldorf, Allemagne (10875): Vitesse du vent & gusts: 13.02.2020 22:00:00 - 19.02.2020 22:00:00 (CET)Mühldorf, Allemagne (10875): Direction du vent: 13.02.2020 22:00:00 - 19.02.2020 22:00:00 (CET)Mühldorf, Allemagne (10875): reduced air pressure: 13.02.2020 22:00:00 - 19.02.2020 22:00:00 (CET)Mühldorf, Allemagne (10875): visibility: 13.02.2020 22:00:00 - 19.02.2020 22:00:00 (CET)Mühldorf, Allemagne (10875): Ensoleillement: 13.02.2020 22:00:00 - 19.02.2020 22:00:00 (CET)Mühldorf, Allemagne (10875): Quantités de précipitations: 13.02.2020 22:00:00 - 19.02.2020 22:00:00 (CET)
Date & Time tt [°C] td [°C] tt 5cm [°C] tt -5cm [°C] tt -20cm [°C] tt -100cm [°C] ff [km/h] ff [knt] fx [km/h] fx [knt] dd ppp [hPa] vv [km] sd [min] rr [mm]
19.02.2020 22:00:00 2,2 -0,2 1,4 1,1 3,8 5,4 12 7 20 11 W 1027,3 58 0 0,0
19.02.2020 21:00:00 2,3 -0,7 1,4 0,9 3,9 5,4 16 9 22 12 W 1026,9 56 0 0,0
19.02.2020 20:00:00 1,3 -1,0 -0,3 1,0 3,9 5,4 8 4 16 9 W 1026,6 61 0 0,0
19.02.2020 19:00:00 2,0 -1,0 0,5 1,5 3,9 5,4 14 8 24 13 W 1026,0 61 0 0,0
19.02.2020 18:00:00 1,6 -1,0 0,1 2,3 3,9 5,4 17 9 40 22 W 1025,1 56 0 0,0
19.02.2020 17:00:00 3,4 -0,6 2,7 3,6 3,8 5,4 30 16 50 27 WNW 1024,2 75 23 0,0
19.02.2020 16:00:00 3,4 -0,4 3,2 4,1 3,8 5,3 34 18 65 35 W 1022,8 73 4 0,2
19.02.2020 15:00:00 4,7 1,3 5,3 4,5 3,7 5,3 32 17 48 26 WNW 1021,4 74 13 0,0
19.02.2020 14:00:00 3,8 1,7 3,4 4,5 3,6 5,3 33 18 73 40 WNW 1020,6 27 5 0,4
19.02.2020 13:00:00 4,5 2,5 4,1 3,6 3,6 5,3 19 10 64 35 WSW 1020,1 22 0 0,4
19.02.2020 12:00:00 6,0 0,6 5,3 3,3 3,6 5,3 37 20 55 30 W 1019,9 38 0 0,0
19.02.2020 11:00:00 6,8 -0,8 6,4 2,5 3,7 5,3 18 10 39 21 WSW 1019,7 75 0 0,0
19.02.2020 10:00:00 6,7 -1,2 6,4 0,6 3,8 5,3 24 13 41 22 WSW 1020,1 75 0 0,0
19.02.2020 09:00:00 4,8 -0,3 3,9 0,5 3,8 5,3 16 9 39 21 W 1021,1 75 0 0,0
19.02.2020 08:00:00 1,2 -1,1 0,2 0,6 3,9 5,3 3 2 7 4 SSE 1022,3 47 0 0,0
19.02.2020 07:00:00 1,2 -1,2 -0,4 0,6 4,0 5,3 0 0 6 3 N 1022,5 62 0 0,0
19.02.2020 06:00:00 1,8 -1,5 -0,6 0,6 4,1 5,3 4 2 8 4 E 1023,1 62 0 0,0
19.02.2020 05:00:00 2,6 -1,6 -0,1 0,6 4,2 5,3 6 3 10 6 W 1023,7 70 0 0,0
19.02.2020 04:00:00 1,4 -1,4 -0,8 0,7 4,3 5,3 4 2 5 3 SSE 1024,5 62 0 0,0
19.02.2020 03:00:00 -0,7 -2,4 -2,6 0,7 4,4 5,3 2 1 6 3 NNE 1025,9 60 0 0,0
19.02.2020 02:00:00 0,8 -2,0 -3,6 0,8 4,6 5,3 5 3 9 5 WSW 1026,3 54 0 0,0
19.02.2020 01:00:00 0,5 -1,8 -3,5 0,9 4,7 5,3 3 2 4 2 SSE 1027,0 61 0 0,0
19.02.2020 00:00:00 0,1 -1,6 -1,5 1,0 4,9 5,3 3 1 4 2 ESE 1027,8 50 0 0,0
18.02.2020 23:00:00 -0,2 -1,7 -2,2 1,1 5,0 5,3 0 0 5 3 N 1028,6 52 0 0,0
18.02.2020 22:00:00 -0,3 -2,0 -2,1 1,2 5,2 5,3 2 1 6 3 SSE 1029,1 60 0 0,0
18.02.2020 21:00:00 -0,1 -2,0 -4,3 1,4 5,3 5,3 3 2 6 3 NW 1029,1 52 0 0,0
18.02.2020 20:00:00 1,2 -1,2 -3,1 1,8 5,4 5,3 4 2 9 5 WNW 1028,7 61 0 0,0
18.02.2020 19:00:00 2,6 -0,9 -1,7 2,9 5,4 5,3 3 1 20 11 SE 1028,5 55 0 0,0
18.02.2020 18:00:00 5,2 -1,1 2,6 4,5 5,4 5,3 15 8 26 14 WNW 1027,6 63 19 0,0
18.02.2020 17:00:00 7,6 -1,2 7,3 5,8 5,3 5,3 23 12 42 23 W 1027,1 63 49 0,0
18.02.2020 16:00:00 7,5 -0,6 6,8 6,5 5,2 5,3 28 15 41 22 W 1027,4 72 17 0,0
18.02.2020 15:00:00 7,8 -0,1 7,8 6,9 5,1 5,3 30 16 45 25 W 1027,7 75 5 0,0
18.02.2020 14:00:00 9,2 0,0 10,1 8,1 5,0 5,3 36 19 51 27 W 1027,6 75 50 0,0
18.02.2020 13:00:00 7,6 -1,3 7,4 7,7 5,0 5,3 35 19 51 28 W 1028,4 67 37 0,0
18.02.2020 12:00:00 8,3 -0,2 9,9 6,8 5,0 5,3 39 21 60 32 W 1028,7 62 37 0,0
18.02.2020 11:00:00 7,2 0,2 7,2 5,6 5,0 5,3 29 16 53 29 W 1028,9 61 11 0,0
18.02.2020 10:00:00 7,3 -0,3 8,4 5,2 5,1 5,3 33 18 50 27 W 1028,9 69 50 0,0
18.02.2020 09:00:00 6,6 0,8 7,7 3,5 5,2 5,3 21 12 33 18 W 1028,5 49 31 0,0
18.02.2020 08:00:00 5,5 0,6 5,2 2,5 5,3 5,3 14 7 25 14 WSW 1028,1 70 6 0,0
18.02.2020 07:00:00 4,2 0,2 2,4 2,4 5,4 5,3 15 8 23 12 W 1027,6 74 0 0,0
18.02.2020 06:00:00 3,4 0,5 1,0 3,4 5,5 5,3 14 8 33 18 W 1027,8 72 0 0,0
18.02.2020 05:00:00 5,5 1,8 4,0 4,6 5,5 5,2 26 14 51 27 W 1026,8 72 0 0,0
18.02.2020 04:00:00 6,7 2,2 5,7 5,1 5,6 5,2 36 19 62 33 W 1026,2 39 0 0,0
18.02.2020 03:00:00 6,8 3,1 6,0 5,2 5,6 5,2 18 10 31 17 W 1025,2 64 0 0,0
18.02.2020 02:00:00 7,0 3,5 5,9 5,5 5,7 5,2 18 10 29 16 W 1025,1 62 0 0,0
18.02.2020 01:00:00 7,4 3,5 6,4 5,8 5,7 5,2 26 14 41 22 WNW 1024,5 75 0 0,0
18.02.2020 00:00:00 7,8 4,1 6,7 6,2 5,7 5,2 28 15 41 22 W 1023,9 68 0 0,1
17.02.2020 23:00:00 8,0 4,6 6,8 6,4 5,7 5,2 19 10 28 15 WNW 1023,1 64 0 0,1
17.02.2020 22:00:00 8,2 4,9 6,5 6,7 5,7 5,2 20 11 31 17 W 1022,5 69 0 0,1
17.02.2020 21:00:00 7,0 6,5 5,7 7,1 5,7 5,2 3 2 6 4 WSW 1022,0 25 0 0,0
17.02.2020 20:00:00 7,7 6,8 6,4 7,6 5,6 5,2 5 3 7 4 WSW 1021,6 35 0 0,2
17.02.2020 19:00:00 7,9 6,8 7,0 8,2 5,5 5,2 2 1 19 10 W 1021,0 23 0 0,2
17.02.2020 18:00:00 8,7 6,5 8,3 9,0 5,3 5,2 16 8 37 20 NW 1020,5 48 0 0,0
17.02.2020 17:00:00 11,8 6,6 10,9 10,4 5,0 5,2 11 6 17 9 N 1018,5 59 0 0,0
17.02.2020 16:00:00 12,7 6,4 12,4 11,8 4,7 5,2 5 3 11 6 N 1017,9 66 9 0,0
17.02.2020 15:00:00 13,0 5,8 14,0 12,7 4,4 5,2 6 4 10 5 NNE 1017,5 73 20 0,0
17.02.2020 14:00:00 13,2 6,0 15,8 12,5 4,1 5,2 5 3 12 7 N 1017,5 63 25 0,0
17.02.2020 13:00:00 13,1 5,9 16,2 11,8 3,9 5,2 7 4 16 9 E 1017,8 62 58 0,0
17.02.2020 12:00:00 12,3 5,5 14,9 9,4 3,8 5,2 11 6 16 8 E 1018,7 75 60 0,0
17.02.2020 11:00:00 11,2 5,4 12,7 6,2 3,8 5,2 2 1 5 3 SSW 1019,4 44 40 0,0
17.02.2020 10:00:00 6,4 3,5 7,4 3,3 3,9 5,2 3 2 6 4 E 1020,2 30 15 0,0
17.02.2020 09:00:00 3,7 1,8 3,5 1,9 4,0 5,2 2 1 11 6 SE 1020,4 32 0 0,0
17.02.2020 08:00:00 2,0 0,9 0,4 1,4 4,0 5,2 4 2 8 4 ESE 1020,2 28 0 0,0
17.02.2020 07:00:00 2,3 1,2 -0,1 1,7 4,1 5,2 3 2 5 3 E 1019,8 25 0 0,0
17.02.2020 06:00:00 2,1 0,9 0,6 2,1 4,2 5,2 0 0 8 4 N 1019,6 23 0 0,0
17.02.2020 05:00:00 3,2 1,6 1,2 2,4 4,2 5,2 4 2 8 4 E 1019,2 26 0 0,0
17.02.2020 04:00:00 3,5 2,0 1,9 2,6 4,3 5,2 5 3 11 6 S 1018,7 33 0 0,0
17.02.2020 03:00:00 4,7 2,2 3,1 2,7 4,4 5,2 7 4 14 8 E 1017,9 39 0 0,0
17.02.2020 02:00:00 3,8 2,4 2,8 2,5 4,5 5,2 8 4 14 8 E 1018,3 30 0 0,0
17.02.2020 01:00:00 3,9 2,6 2,3 2,2 4,6 5,2 8 4 11 6 E 1018,4 25 0 0,0
17.02.2020 00:00:00 2,6 1,5 -0,5 2,4 4,7 5,2 3 2 11 6 E 1018,5 35 0 0,0
16.02.2020 23:00:00 3,6 2,0 0,5 2,9 4,8 5,2 7 4 9 5 E 1017,7 36 0 0,0
16.02.2020 22:00:00 3,8 2,2 0,9 3,4 4,8 5,2 6 3 8 4 E 1017,7 39 0 0,0
16.02.2020 21:00:00 5,3 2,7 1,5 4,3 4,8 5,2 5 3 22 12 WNW 1017,9 55 0 0,0
16.02.2020 20:00:00 5,7 2,5 3,8 5,2 4,7 5,2 11 6 14 8 ENE 1017,6 50 0 0,0
16.02.2020 19:00:00 8,0 3,8 4,3 6,4 4,5 5,2 8 5 14 8 E 1016,9 52 0 0,0
16.02.2020 18:00:00 9,9 4,4 8,2 7,5 4,3 5,2 9 5 19 10 E 1016,8 53 0 0,0
16.02.2020 17:00:00 10,8 4,9 9,5 8,9 4,0 5,2 9 5 14 8 E 1017,3 51 0 0,0
16.02.2020 16:00:00 11,4 5,2 11,3 9,8 3,8 5,2 8 4 17 9 ESE 1017,7 51 15 0,0
16.02.2020 15:00:00 11,9 3,4 12,8 10,3 3,5 5,2 8 4 13 7 SE 1019,0 67 14 0,0
16.02.2020 14:00:00 10,8 2,4 11,9 10,0 3,3 5,2 5 3 7 4 SE 1019,7 48 29 0,0
16.02.2020 13:00:00 9,8 2,1 11,8 7,6 3,3 5,2 3 1 7 4 S 1020,6 57 26 0,0
16.02.2020 12:00:00 7,4 -0,2 10,6 4,7 3,3 5,2 4 2 8 4 E 1021,5 72 25 0,0
16.02.2020 11:00:00 4,2 1,9 5,1 1,2 3,4 5,2 4 2 8 5 E 1022,4 33 0 0,0
16.02.2020 10:00:00 2,8 0,6 2,7 0,6 3,5 5,2 6 4 9 5 E 1022,8 35 8 0,0
16.02.2020 09:00:00 1,4 -0,1 1,5 0,6 3,6 5,2 7 4 9 5 E 1023,2 23 36 0,0
16.02.2020 08:00:00 0,4 -0,4 -1,2 0,6 3,6 5,2 6 3 8 4 E 1023,8 18 0 0,0
16.02.2020 07:00:00 -0,2 -1,0 -2,8 0,6 3,7 5,2 2 1 11 6 NE 1023,9 21 0 0,0
16.02.2020 06:00:00 0,2 -0,4 -1,4 0,6 3,9 5,2 7 4 13 7 E 1024,0 18 0 0,0
16.02.2020 05:00:00 1,0 0,1 -0,6 0,7 4,0 5,2 9 5 12 6 E 1023,8 24 0 0,0
16.02.2020 04:00:00 0,9 0,0 -0,5 0,7 4,1 5,2 9 5 12 6 E 1024,2 12 0 0,0
16.02.2020 03:00:00 1,5 0,1 -0,3 0,8 4,3 5,2 8 4 11 6 E 1024,9 22 0 0,0
16.02.2020 02:00:00 0,9 0,5 -0,9 0,9 4,4 5,2 4 2 9 5 SE 1025,0 11 0 0,0
16.02.2020 01:00:00 1,3 1,0 -0,1 1,0 4,6 5,2 7 4 11 6 E 1025,0 11 0 0,0
16.02.2020 00:00:00 1,0 0,9 -2,3 1,2 4,7 5,2 5 3 9 5 ESE 1025,2 13 0 0,0
15.02.2020 23:00:00 0,2 0,0 -2,7 1,4 4,9 5,2 4 2 6 3 E 1025,4 13 0 0,0
15.02.2020 22:00:00 0,7 0,4 -2,9 1,8 5,0 5,2 7 4 10 6 E 1025,2 22 0 0,0
15.02.2020 21:00:00 1,5 0,7 -2,8 2,9 5,0 5,2 5 3 8 4 E 1025,3 23 0 0,0
15.02.2020 20:00:00 4,6 2,4 -0,3 4,3 5,0 5,2 6 4 9 5 E 1024,6 35 0 0,0
15.02.2020 19:00:00 6,3 3,3 1,7 5,9 4,8 5,2 7 4 10 5 E 1024,2 37 0 0,0
15.02.2020 18:00:00 6,7 3,3 2,7 8,1 4,6 5,2 4 2 6 3 E 1024,0 69 1 0,0
15.02.2020 17:00:00 9,6 3,2 7,4 10,5 4,3 5,2 5 3 9 5 SE 1023,9 48 58 0,0
15.02.2020 16:00:00 10,4 2,6 11,5 11,8 4,0 5,2 4 2 10 5 SSE 1024,0 75 60 0,0
15.02.2020 15:00:00 10,3 2,7 12,0 12,1 3,7 5,2 4 2 10 5 S 1024,5 75 60 0,0
15.02.2020 14:00:00 9,6 2,1 11,9 10,8 3,5 5,2 5 3 13 7 SSW 1025,0 50 60 0,0
15.02.2020 13:00:00 8,4 2,2 9,9 8,6 3,4 5,2 9 5 16 9 SE 1025,4 63 60 0,0
15.02.2020 12:00:00 6,7 2,0 8,0 6,4 3,4 5,2 8 4 14 8 ESE 1026,4 57 55 0,0
15.02.2020 11:00:00 5,4 2,3 7,1 4,0 3,5 5,2 8 4 14 8 ESE 1026,9 47 42 0,0
15.02.2020 10:00:00 3,6 1,5 4,0 0,9 3,5 5,2 8 4 12 6 ESE 1027,4 48 15 0,0
15.02.2020 09:00:00 1,6 0,7 1,2 0,6 3,6 5,2 4 2 9 5 E 1027,9 35 35 0,0
15.02.2020 08:00:00 -0,2 -0,2 -2,1 0,7 3,8 5,2 3 2 6 3 ESE 1028,2 6 0 0,0
15.02.2020 07:00:00 -0,2 -0,3 -2,3 0,7 3,9 5,2 3 2 9 5 E 1028,0 10 0 0,0
15.02.2020 06:00:00 -0,7 -1,1 -2,9 0,9 4,0 5,2 0 0 6 3 N 1028,2 13 0 0,0
15.02.2020 05:00:00 -0,2 -0,5 -2,2 0,9 4,0 5,2 4 2 7 4 E 1029,1 17 0 0,0
15.02.2020 04:00:00 1,4 0,9 -1,6 1,8 4,1 5,2 3 1 6 3 NNE 1029,2 51 0 0,0
15.02.2020 03:00:00 3,4 2,3 0,4 2,8 4,1 5,2 3 2 4 2 ESE 1029,2 50 0 0,0
15.02.2020 02:00:00 3,5 2,5 2,3 3,0 4,2 5,2 3 2 5 3 ESE 1029,7 43 0 0,0
15.02.2020 01:00:00 3,7 2,4 2,3 3,2 4,2 5,2 0 0 5 3 N 1029,6 52 0 0,0
15.02.2020 00:00:00 4,3 2,7 2,9 3,4 4,3 5,2 4 2 6 3 SSW 1029,3 50 0 0,0
14.02.2020 23:00:00 3,9 2,8 2,9 3,6 4,3 5,2 3 2 6 3 NW 1029,0 53 0 0,0
14.02.2020 22:00:00 4,6 2,9 2,9 3,8 4,3 5,2 5 3 10 5 WSW 1028,8 59 0 0,0
14.02.2020 21:00:00 4,8 2,9 3,7 3,9 4,4 5,2 7 4 9 5 WNW 1028,4 60 0 0,0
14.02.2020 20:00:00 4,5 2,6 3,6 4,2 4,4 5,2 8 5 10 5 W 1027,5 63 0 0,0
14.02.2020 19:00:00 5,0 2,3 3,8 4,5 4,3 5,2 6 4 18 10 W 1026,5 75 0 0,0
14.02.2020 18:00:00 5,2 2,0 3,5 5,1 4,2 5,2 14 8 19 10 W 1025,4 70 0 0,0
14.02.2020 17:00:00 6,2 3,4 5,6 6,1 4,1 5,2 11 6 33 18 W 1024,6 68 0 0,0
14.02.2020 16:00:00 7,1 3,0 7,3 6,9 4,0 5,2 21 12 37 20 W 1024,2 74 10 0,0
14.02.2020 15:00:00 6,2 3,0 6,6 6,9 3,9 5,2 18 10 50 27 W 1024,0 69 0 0,0
14.02.2020 14:00:00 6,9 3,4 7,6 7,4 3,8 5,2 21 11 40 22 WNW 1023,4 75 10 0,0
14.02.2020 13:00:00 7,1 3,5 8,1 6,7 3,7 5,2 29 15 44 24 W 1023,5 68 10 0,0
14.02.2020 12:00:00 6,0 3,7 5,9 5,8 3,6 5,2 27 14 55 30 W 1023,1 11 3 0,0
14.02.2020 11:00:00 6,5 2,9 6,9 5,2 3,6 5,2 37 20 55 30 W 1021,6 65 8 0,0
14.02.2020 10:00:00 5,9 2,6 5,1 4,4 3,6 5,2 37 20 49 27 W 1020,7 72 0 0,1
14.02.2020 09:00:00 5,4 3,2 4,4 3,9 3,6 5,2 30 16 53 29 W 1019,4 21 0 0,3
14.02.2020 08:00:00 5,5 2,6 4,4 3,7 3,6 5,2 29 16 48 26 W 1017,6 74 0 0,1
14.02.2020 07:00:00 5,3 2,8 4,1 3,6 3,6 5,2 38 20 56 30 W 1015,7 47 0 0,2
14.02.2020 06:00:00 5,4 2,4 4,0 3,5 3,6 5,2 43 23 64 34 W 1014,7 30 0 1,5
14.02.2020 05:00:00 5,8 2,3 4,0 3,3 3,6 5,2 36 19 53 29 W 1013,0 23 0 0,1
14.02.2020 04:00:00 5,6 1,6 4,5 3,1 3,6 5,2 26 14 45 24 W 1012,2 75 0 0,0
14.02.2020 03:00:00 5,1 1,5 3,6 3,2 3,6 5,2 26 14 49 26 W 1012,2 69 0 0,0
14.02.2020 02:00:00 6,0 2,3 4,9 3,7 3,6 5,2 34 18 50 27 W 1010,8 75 0 0,0
14.02.2020 01:00:00 5,8 3,1 4,7 3,6 3,6 5,2 22 12 41 22 W 1009,9 58 0 0,1
14.02.2020 00:00:00 5,3 2,6 3,9 3,4 3,6 5,2 14 7 22 12 WSW 1009,9 27 0 0,0
13.02.2020 23:00:00 4,6 2,6 3,2 3,6 3,6 5,2 13 7 30 16 WSW 1009,9 75 0 0,0
13.02.2020 22:00:00 5,2 2,6 3,9 4,1 3,6 5,2 24 13 66 36 WSW 1010,2 65 0 1,0

tt = Température de l'air
td = dewpoint
tt 5cm = Température de l'air 5cm
tt -5cm = Température de l'air -5cm
tt -20cm = Température de l'air -20cm
tt -100cm = Température de l'air -100cm
ff = Vitesse du vent
fx = gusts
dd = Direction du vent
ppp = reduced air pressure
vv = visibility
sd = Ensoleillement
rr = Quantités de précipitations

stations d'obs. à proximité